Kaltag, AK

1:07 PM AKST on December 06, 2016 (GMT -0900)
Kaltag

Weather History for PAKV - February, 2013

Change the Weather History Date:

Wednesday, February 6, 2013

  Actual Average (PAGA) Record (PAGA)
Temperature  
Mean Temperature 9 °F -  
Max Temperature 12 °F 1 °F 39 °F (2003)
Min Temperature 6 °F -13 °F -57 °F (1968)
Degree Days  
Heating Degree Days 56    
Moisture  
Dew Point 2 °F    
Average Humidity 73    
Maximum Humidity 79    
Minimum Humidity 69    
Precipitation  
Precipitation 0.00 in - - ()
Sea Level Pressure  
Sea Level Pressure 29.76 in    
Wind  
Wind Speed 9 mph (NE)    
Max Wind Speed 13 mph    
Max Gust Speed -    
Visibility 8 miles    
Events Snow    
Averages and records for this station are not official NWS values.
T = Trace of Precipitation, MM = Missing Value Source: NWS Daily Summary

Daily Weather History Graph

Daily Weather History Graph

Search for Another Location

Airport or City:

Trip Planner

Search our weather history database for the weather conditions in past years. The results will help you decide how hot, cold, wet, or windy it might be!

Date:

Astronomy

Feb. 06, 2013 Rise Set
Actual Time 9:59 AM AKST 5:40 PM AKST
Civil Twilight 9:04 AM AKST 6:34 PM AKST
Nautical Twilight 8:06 AM AKST 7:33 PM AKST
Astronomical Twilight 7:10 AM AKST 8:28 PM AKST
Moon 7:48 AM AKST 1:18 PM AKST
Length of Visible Light 9h 30m
Length of Day
7h 41m
Waning Crescent, 15% of the Moon is Illuminated
Feb 6
Waning Crescent
Feb 9
New
Feb 17
First Quarter
Feb 25
Full
Mar 4
Last Quarter

Hourly Weather History & Observations

Time (AKST) Temp. Windchill Dew Point Humidity Pressure Visibility Wind Dir Wind Speed Gust Speed Precip Events Conditions
12:53 AM 12.0 °F -1.3 °F 6.1 °F 77% 29.70 in 2.5 mi NE 10.4 mph - 0.00 in Snow Light Snow
1:05 AM 12.2 °F -0.2 °F 6.8 °F 79% 29.69 in 3.0 mi NE 9.2 mph - 0.00 in Snow Light Snow
1:53 AM 12.0 °F -0.4 °F 5.0 °F 73% 29.71 in 10.0 mi NE 9.2 mph - 0.00 in   Overcast
3:53 AM 10.9 °F -2.6 °F 3.0 °F 70% 29.73 in 10.0 mi NE 10.4 mph - N/A   Mostly Cloudy
4:48 AM 10.4 °F -4.8 °F 3.2 °F 73% 29.71 in 2.0 mi NE 12.7 mph - 0.00 in Snow Light Snow
4:53 AM 10.9 °F -3.4 °F 5.0 °F 77% 29.73 in 1.8 mi NE 11.5 mph - 0.00 in Snow Light Snow
5:20 AM 10.4 °F -3.3 °F 5.0 °F 79% 29.71 in 3.0 mi NE 10.4 mph - 0.00 in Snow Light Snow
5:36 AM 10.4 °F -1.5 °F 3.2 °F 73% 29.72 in 9.0 mi NE 8.1 mph - 0.00 in   Overcast
5:53 AM 10.0 °F -0.9 °F 3.9 °F 76% 29.73 in 10.0 mi NE 6.9 mph - 0.00 in   Overcast
6:53 AM 10.0 °F -0.9 °F 3.9 °F 76% 29.74 in 7.0 mi NE 6.9 mph - 0.00 in Snow Light Snow
7:53 AM 9.0 °F -3.2 °F 3.0 °F 77% 29.75 in 8.0 mi NE 8.1 mph - 0.00 in Snow Light Snow
8:53 AM 9.0 °F -2.2 °F 1.9 °F 73% 29.77 in 10.0 mi ENE 6.9 mph - 0.00 in   Overcast
9:53 AM 9.0 °F -3.2 °F 1.0 °F 70% 29.77 in 10.0 mi NE 8.1 mph - 0.00 in   Overcast
10:53 AM 9.0 °F -2.2 °F 1.0 °F 70% 29.78 in 10.0 mi ENE 6.9 mph - N/A   Overcast
11:53 AM 9.0 °F -4.2 °F 1.0 °F 70% 29.79 in 10.0 mi ENE 9.2 mph - N/A   Overcast
12:53 PM 9.0 °F -3.2 °F 1.0 °F 70% 29.80 in 10.0 mi ENE 8.1 mph - N/A   Overcast
1:53 PM 9.0 °F -0.9 °F 1.0 °F 70% 29.81 in 10.0 mi ENE 5.8 mph - N/A   Overcast
2:53 PM 9.0 °F -2.2 °F 1.0 °F 70% 29.81 in 10.0 mi ENE 6.9 mph - N/A   Overcast
4:53 PM 8.1 °F -4.3 °F -0.0 °F 70% 29.77 in 10.0 mi ENE 8.1 mph - N/A   Overcast
5:53 PM 7.0 °F -3.3 °F -0.0 °F 73% 29.79 in 10.0 mi ENE 5.8 mph - N/A   Overcast
6:53 PM 7.0 °F -5.7 °F -0.0 °F 73% 29.80 in 8.0 mi NE 8.1 mph - 0.00 in Snow Light Snow
7:53 PM 6.1 °F -8.7 °F -0.0 °F 76% 29.79 in 8.0 mi ENE 10.4 mph - 0.00 in Snow Light Snow
8:53 PM 6.1 °F -4.3 °F -0.0 °F 76% 29.78 in 6.0 mi ENE 5.8 mph - 0.00 in Snow Light Snow
9:53 PM 6.1 °F -6.8 °F -0.0 °F 76% 29.78 in 8.0 mi NE 8.1 mph - 0.00 in Snow Light Snow
10:53 PM 6.1 °F -6.8 °F -0.9 °F 73% 29.76 in 10.0 mi NE 8.1 mph - 0.00 in   Overcast
11:53 PM 6.1 °F -6.8 °F -2.0 °F 69% 29.74 in 10.0 mi NE 8.1 mph - N/A   Overcast